Location: Newark
(48.0000°N, 67.0000°E)
Time: 07:04:23
(UTC+00:00)

Courier 1B - All Passes

Search period start: 25 February 2020 00:00
Search period end: 06 March 2020 00:00
Orbit: 962 x 1209 km, 28.3° (Epoch: 25 February)

Date Brightness Start Highest point End Pass type
(mag) Time Alt. Az. Time Alt. Az. Time Alt. Az.
25 Feb - 10:25:31 10° SSW 10:29:25 15° S 10:33:16 10° SE daylight
25 Feb - 12:18:11 10° SW 12:22:14 15° S 12:26:12 10° SSE daylight
26 Feb - 09:32:27 10° SSW 09:35:53 13° SSE 09:39:16 10° SE daylight
26 Feb - 11:24:20 10° SW 11:28:42 16° S 11:32:58 10° SSE daylight
26 Feb - 13:19:20 10° SW 13:21:25 11° SSW 13:23:30 10° S daylight
27 Feb - 08:39:52 10° S 08:42:20 12° SSE 08:44:48 10° SE daylight
27 Feb - 10:30:40 10° SSW 10:35:09 16° S 10:39:33 10° SE daylight
27 Feb - 12:24:33 10° SW 12:27:56 13° SSW 12:31:16 10° SSE daylight
28 Feb - 09:37:12 10° SSW 09:41:35 16° S 09:45:55 10° SE daylight
28 Feb - 11:30:20 10° SW 11:34:25 15° S 11:38:26 10° SSE daylight
29 Feb - 08:43:58 10° SSW 08:48:01 15° S 08:52:02 10° SE daylight
29 Feb - 10:36:23 10° SW 10:40:52 16° S 10:45:17 10° SSE daylight
29 Feb - 12:32:39 10° SSW 12:33:36 10° SSW 12:34:32 10° SSW daylight
01 Mar - 07:51:03 10° SSW 07:54:27 13° SSE 07:57:51 10° SE daylight
01 Mar - 09:42:39 10° SW 09:47:18 17° S 09:51:54 10° SE daylight
01 Mar - 11:37:05 10° SW 11:40:06 13° SSW 11:43:05 10° S daylight
02 Mar - 06:58:48 10° S 07:00:55 11° SSE 07:03:04 10° SE daylight
02 Mar - 08:49:07 10° SSW 08:53:43 17° S 08:58:18 10° SE daylight
02 Mar - 10:42:40 10° SW 10:46:33 15° SSW 10:50:25 10° SSE daylight
03 Mar - 07:55:48 10° SSW 08:00:08 16° S 08:04:30 10° SE daylight
03 Mar - 09:48:38 10° SW 09:53:01 16° S 09:57:21 10° SSE daylight
04 Mar - 07:02:45 10° SSW 07:06:34 14° SSE 07:10:26 10° SE daylight
04 Mar - 08:54:50 10° SW 08:59:26 17° S 09:04:01 10° SSE daylight
04 Mar - 10:50:02 10° SW 10:52:13 11° SSW 10:54:24 10° S daylight
05 Mar - 06:10:06 10° S 06:13:03 12° SSE 06:16:01 10° SE daylight
05 Mar - 08:01:15 10° SW 08:05:50 17° S 08:10:28 10° SE daylight
05 Mar - 09:55:16 10° SW 09:58:41 13° SSW 10:02:06 10° SSE daylight
